Home > Weather > Ulyanovsk > Past weeks

Flag for Russia Past Weather in Ulyanovsk, Russia — Yesterday and Last 2 Weeks

Now
61 °F

Scattered clouds.


Feels Like: 61 °F
Forecast: 66 / 79 °F
Wind: 1 mph from Southwest

Location: Ulyanovsk Vostochny Airport

Current Time: Jul 28, 2016 at 7:02:49 AM

Latest Report: Jul 28, 2016 at 6:00 AM


Visibility: 3 mi

Pressure: 29.98 "Hg

Humidity: 88%

Dew Point: 57 °F

Location of UlyanovskLocation

Past Weather in Ulyanovsk — Graph

°F

Ulyanovsk Temperature Yesterday

Maximum temperature yesterday: 82 °F (at 3:00 PM)
Minimum temperature yesterday: 54 °F (at 3:00 AM)
Average temperature yesterday: 69 °F

High & Low Weather Summary for the Past Weeks

 TemperatureHumidityPressure
High91 °F (Jul 14, 5:00 PM)100% (Jul 23, 6:00 AM)30.04 "Hg (Jul 23, 6:00 AM)
Low54 °F (Jul 27, 3:00 AM)30% (Jul 27, 5:00 PM)29.74 "Hg (Jul 14, 5:00 PM)
Average72 °F66%29.88 "Hg
* Reported Jul 13 6:00 AM — Jul 28 6:00 AM, Ulyanovsk, Weather by CustomWeather, © 2016

Note: Actual official high and low records may vary slightly from our data, if they occured in-between our weather recording intervals... More about our weather records

Advertising

Ulyanovsk Weather History for the Previous 24 Hours

Scroll right to see more
 ConditionsComfort  
Time TempWeatherWind HumidityBarometerVisibility
6:00 AM
Thu, Jul 28
61 °FScattered clouds.1 mph88%29.98 "Hg3 mi
5:00 AM57 °FPassing clouds.3 mph94%29.98 "Hg3 mi
4:00 AM55 °FClear.3 mph88%29.95 "Hg3 mi
3:00 AM57 °FClear.1 mph82%29.95 "Hg3 mi
2:00 AM59 °FClear.3 mph77%29.95 "Hg3 mi
1:00 AM59 °FClear.1 mph77%29.98 "Hg3 mi
12:00 AM61 °FClear.1 mph72%29.98 "Hg3 mi
11:00 PM
Wed, Jul 27
61 °FClear.1 mph77%29.95 "Hg3 mi
10:00 PM64 °FClear.1 mph68%29.95 "Hg3 mi
9:00 PM68 °FClear.3 mph69%29.98 "Hg3 mi
8:00 PM77 °FClear.1 mph42%29.95 "Hg5 mi
7:00 PM79 °FClear.6 mph37%29.98 "Hg5 mi
6:00 PM81 °FClear.10 mph30%29.98 "Hg5 mi
5:00 PM82 °FPassing clouds.10 mph30%29.98 "Hg5 mi
4:00 PM81 °FPassing clouds.8 mph34%29.98 "Hg5 mi
3:00 PM82 °FPassing clouds.10 mph32%29.98 "Hg5 mi
2:00 PM81 °FPassing clouds.10 mph34%30.01 "Hg5 mi
1:00 PM81 °FPassing clouds.3 mph37%30.01 "Hg5 mi
12:00 PM81 °FPassing clouds.3 mph34%30.01 "Hg5 mi
11:00 AM79 °FClear.3 mph42%30.04 "Hg5 mi
10:00 AM75 °FClear.3 mph47%30.04 "Hg5 mi
9:00 AM73 °FClear.6 mph50%30.04 "Hg5 mi
8:00 AM68 °FHaze.1 mph60%30.04 "Hg3 mi
7:00 AM61 °FHaze.1 mph77%30.01 "Hg3 mi
Weather by CustomWeather, © 2016

See weather overviewHow to use our weather pages